Theta_e
326 323 326 325 324 324 324 325 324 326 326 325 325 326 332 335 335 337 341 343 346 350 350 349 346 337 336 340 352 350 349 349 346 354 353 353 353 351 349 349 347 345 343 331
325 327 324 324 324 325 325 326 328 327 327 325 327 337 338 337 339 340 344 345 347 351 354 355 350 347 343 339 347 355 354 357 351 348 351 352 353 352 351 348 340 333 336 332
328 325 324 324 326 326 328 326 325 325 325 326 327 340 341 338 339 340 340 345 347 348 351 355 357 350 347 348 349 349 353 356 360 356 355 352 353 351 349 343 333 335 331 336
326 324 324 326 327 325 329 326 325 325 326 328 329 342 342 338 339 340 340 340 342 347 347 348 351 355 352 348 348 349 350 353 359 359 359 356 355 354 351 339 346 342 337 339
327 325 325 328 327 325 326 325 326 328 327 328 330 340 342 336 337 339 339 339 340 343 345 346 345 350 354 354 354 353 350 350 352 357 357 357 355 347 345 351 353 350 351 352
326 325 324 326 325 326 325 326 329 330 329 331 335 340 341 340 336 338 338 338 338 340 342 342 344 350 351 350 354 358 355 353 353 353 354 354 354 355 353 351 348 345 342 346
325 324 326 327 327 328 328 329 332 335 338 334 334 329 337 335 335 336 338 338 338 338 339 339 341 344 346 347 349 349 347 349 347 346 348 346 344 342 344 344 344 341 340 342
329 329 328 327 327 327 328 329 333 333 332 330 332 337 336 334 334 335 335 337 336 336 337 338 338 338 340 343 345 345 345 343 346 343 342 344 343 341 341 340 339 341 338 334
333 330 328 327 326 326 329 331 330 331 333 332 336 338 334 335 335 334 335 336 334 332 331 333 335 335 334 336 339 342 341 340 339 339 340 342 341 339 338 339 337 334 332 330
331 332 329 328 327 327 331 329 333 333 334 333 329 338 338 340 336 333 333 333 332 331 330 329 329 330 331 332 334 335 336 338 340 340 341 340 340 338 338 336 333 330 328 328
331 334 332 331 331 331 329 325 329 332 331 332 333 335 338 335 334 332 331 331 330 330 329 329 328 327 327 327 327 332 334 336 337 338 340 341 339 338 337 335 332 330 328 327
332 329 329 329 328 329 329 329 330 330 331 331 332 329 334 333 332 332 331 330 329 329 329 328 327 326 326 326 326 327 327 331 335 336 338 339 338 337 336 334 332 330 329 328
330 333 332 329 330 331 330 330 328 328 331 331 331 331 333 333 332 332 331 330 329 329 329 327 326 326 326 326 327 326 327 328 328 331 335 335 334 337 336 335 332 330 329 328
330 328 330 331 330 328 327 326 325 326 328 328 328 328 328 334 332 331 330 329 328 328 328 327 326 327 326 326 325 326 327 327 327 327 329 332 333 334 335 334 332 330 329 328
332 332 329 329 328 326 325 326 325 325 326 327 327 330 333 333 332 330 331 331 329 328 327 327 326 326 324 324 323 322 324 326 326 325 327 327 329 333 335 334 332 331 329 328
331 332 330 330 328 327 327 326 327 327 326 325 328 330 328 331 330 329 327 328 327 327 325 325 326 324 324 323 323 322 323 323 323 324 323 324 325 330 331 331 331 331 329 328
330 332 331 329 327 328 329 330 329 328 327 326 328 329 328 327 326 326 327 327 326 324 322 322 322 321 321 322 321 321 321 320 320 323 322 323 326 329 330 331 330 330 328 325
330 332 332 332 330 331 332 328 327 327 326 325 328 328 327 326 327 324 324 322 321 321 320 320 318 318 317 317 318 320 318 318 322 323 325 325 328 325 325 325 324 324 322 319
327 330 333 330 329 329 330 327 326 326 327 327 327 326 324 323 322 323 320 318 318 319 318 317 317 316 317 318 319 320 319 321 317 324 324 326 324 323 323 322 318 314 313 315
328 329 330 331 333 333 331 326 324 324 327 326 324 322 320 318 319 319 319 317 318 317 317 318 317 317 319 320 320 321 324 324 324 324 324 322 321 320 318 318 316 317 315 315
331 331 332 330 331 331 328 327 325 328 331 324 320 318 317 317 318 320 320 321 318 317 318 317 317 317 318 319 319 322 320 324 323 319 319 317 316 316 317 315 313 312 311 310
330 330 330 330 331 334 326 326 328 326 321 318 317 317 317 318 318 318 319 320 319 319 318 317 318 317 318 319 321 320 323 321 319 316 314 312 312 312 312 311 309 310 310 311
331 331 336 328 328 328 324 324 322 318 317 317 318 318 317 317 317 317 319 319 318 318 318 317 317 318 318 320 317 315 319 320 316 312 309 308 307 308 307 305 306 305 306 310
329 328 328 328 326 325 323 319 317 317 317 317 317 317 317 318 317 318 319 320 319 319 319 319 318 317 319 318 320 320 321 317 312 307 307 306 306 305 305 303 300 299 299 305
327 326 326 326 324 321 320 319 318 317 317 317 316 316 317 316 316 318 319 319 318 318 317 318 319 319 318 319 319 320 320 315 310 308 307 306 305 302 299 299 300 297 295 296
325 327 326 326 320 319 320 318 317 318 317 316 316 316 315 316 318 317 318 317 316 316 316 316 316 317 316 319 319 321 319 314 312 309 307 306 304 304 303 300 297 296 297 297
Wind_Speed
15 9 4 13 9 9 10 7 8 5 3 3 11 6 10 13 18 16 14 13 9 15 18 24 24 23 18 11 11 22 25 23 22 16 23 21 20 19 21 18 19 22 22 32
9 7 8 5 3 7 7 9 11 9 2 5 12 20 25 23 10 16 17 16 16 19 10 15 18 20 21 10 7 4 14 14 23 26 17 14 16 19 10 12 5 12 24 39
9 13 3 5 9 7 10 3 8 11 12 11 3 17 27 28 14 17 16 17 17 17 18 14 13 18 20 24 19 7 4 12 12 14 13 15 10 8 8 7 3 19 48 50
6 9 3 7 5 8 7 8 8 11 12 12 12 5 11 15 15 16 15 16 17 16 16 16 15 16 18 19 21 18 18 13 9 13 14 16 12 14 14 13 21 43 52 38
6 2 1 9 11 6 13 5 11 10 13 12 12 10 8 22 11 14 15 15 16 18 18 19 17 22 27 21 21 19 19 15 15 10 12 11 16 15 23 20 19 16 11 11
10 3 3 8 8 8 8 11 16 15 11 5 4 8 7 7 9 12 14 14 14 17 19 19 26 27 29 29 26 21 19 17 13 9 7 9 10 13 14 18 17 18 16 7
7 9 4 4 12 9 6 9 9 6 4 4 15 8 9 9 10 12 12 14 14 15 17 18 18 25 28 27 28 32 33 28 29 25 23 22 21 22 20 18 18 21 17 11
6 9 5 4 7 9 9 6 6 12 10 9 15 11 11 14 12 13 14 14 15 16 16 17 19 23 24 24 24 24 27 31 29 29 27 21 20 18 18 19 16 13 10 15
9 6 3 3 7 8 10 9 11 9 14 10 5 5 4 12 11 11 12 14 14 14 14 16 18 20 23 23 24 23 23 27 26 26 25 22 17 16 14 11 12 14 12 10
9 7 2 3 5 9 2 7 8 4 7 13 15 8 5 8 8 10 13 12 12 13 13 13 16 19 20 19 20 22 21 20 22 23 24 20 15 11 9 10 11 10 8 6
10 7 8 9 3 10 11 11 9 7 7 10 9 7 8 7 8 9 11 10 10 12 13 12 15 18 19 21 23 19 20 20 21 21 21 21 14 10 9 8 10 7 5 4
8 4 7 15 9 10 8 5 9 4 11 10 10 10 10 9 9 7 9 11 11 10 10 12 17 18 18 18 20 19 21 22 19 20 20 19 17 12 5 6 7 4 4 2
9 5 6 7 10 3 9 9 7 9 4 10 9 7 6 9 13 12 10 10 10 9 10 10 13 16 16 18 20 20 20 21 23 23 19 18 19 14 10 6 5 4 4 4
3 3 6 8 14 11 8 10 11 9 7 11 12 16 15 13 9 6 7 4 9 10 8 9 9 12 16 18 21 22 21 22 24 27 26 25 21 16 12 12 9 7 5 6
4 4 7 10 13 14 14 12 12 11 8 8 13 12 15 13 13 13 14 8 7 8 15 13 12 13 18 18 19 20 22 23 25 28 29 27 27 16 13 11 12 10 8 8
3 4 9 11 15 12 10 14 13 8 8 11 9 9 11 12 10 14 16 14 14 13 13 18 17 19 19 18 18 19 20 22 27 26 29 32 29 17 16 15 13 12 10 7
4 5 7 9 11 14 11 11 9 8 11 12 11 11 14 14 12 14 13 17 16 16 16 15 16 20 22 22 23 24 21 24 27 25 28 29 26 22 16 17 17 13 6 6
4 5 5 7 10 9 9 8 8 9 11 13 11 13 15 15 15 15 13 11 15 16 16 15 19 22 25 26 25 23 20 27 26 21 26 28 23 25 20 15 21 27 18 20
1 5 5 5 8 11 12 11 9 8 10 15 13 14 16 17 18 7 15 16 14 13 17 19 19 23 25 21 19 19 26 21 27 33 25 20 18 15 11 15 22 21 18 14
2 2 3 7 7 5 9 10 11 10 5 13 14 15 17 17 12 13 20 19 17 19 20 19 22 21 19 22 25 32 26 21 23 26 27 16 13 8 12 16 18 17 18 19
3 5 8 8 7 4 10 13 10 6 8 14 15 15 15 13 11 13 14 14 18 20 20 22 20 20 19 19 18 14 18 22 22 28 19 14 9 11 14 14 15 16 13 12
3 5 7 6 7 1 13 7 7 6 11 12 13 14 15 15 16 16 16 15 19 19 23 23 20 18 18 20 24 30 27 16 17 18 15 20 23 22 16 17 14 14 15 10
1 2 4 4 7 7 6 7 8 8 10 12 15 15 15 17 17 18 16 16 20 22 21 20 21 22 18 16 20 11 13 13 12 11 17 17 17 19 20 20 19 19 19 16
3 7 2 6 5 12 9 8 8 10 12 13 13 16 18 18 19 18 16 14 18 25 24 26 21 19 20 22 15 18 14 8 11 16 16 15 16 17 17 16 20 21 22 19
7 1 4 9 7 8 7 13 12 12 12 15 18 18 17 19 19 19 15 16 21 21 23 25 22 24 28 16 14 12 7 8 14 14 11 9 10 13 20 23 19 20 24 21
5 5 4 4 7 6 10 12 13 14 15 16 17 18 22 22 20 25 17 25 22 23 25 23 24 22 27 22 9 13 8 12 12 11 5 1 3 5 10 14 20 24 23 24
Wind_Direction
204 261 300 20 360 334 315 322 284 266 16 325 289 314 53 37 65 51 47 30 19 55 46 33 21 3 345 321 206 188 193 201 217 192 191 203 228 234 232 232 218 226 222 299
239 225 52 355 330 303 282 275 13 314 131 251 281 31 24 78 316 62 53 63 34 38 76 68 42 17 11 347 312 182 199 193 207 220 231 219 213 228 209 198 259 318 280 292
289 67 81 286 279 277 242 8 353 305 299 257 216 44 356 308 76 68 49 71 66 43 34 47 56 56 30 24 21 350 300 223 215 218 237 250 257 243 249 202 64 299 265 275
307 80 313 283 257 320 22 15 309 303 291 284 192 127 194 284 83 74 54 40 61 62 39 31 41 45 68 50 27 14 16 7 243 234 235 245 230 236 250 220 238 254 253 253
77 235 288 292 25 342 308 355 298 285 278 294 147 112 312 328 85 73 63 44 40 55 51 26 28 36 32 53 54 39 24 6 357 1 249 261 261 247 292 298 275 226 266 272
298 64 277 344 304 260 301 283 274 264 254 239 132 140 213 223 67 76 71 53 38 47 54 36 15 35 40 20 26 43 44 34 21 13 350 315 304 305 335 349 355 353 355 323
194 193 149 248 295 210 239 318 318 250 327 90 243 305 122 121 81 79 65 55 49 46 50 43 34 23 28 21 13 22 23 38 44 39 38 25 26 23 18 10 1 345 337 359
250 154 154 28 357 338 313 318 11 332 335 336 218 20 105 83 65 72 56 53 38 46 44 51 32 34 35 28 22 23 21 21 21 25 25 23 12 14 6 358 347 338 354 335
347 54 98 87 326 329 357 14 336 310 292 269 101 28 263 96 58 40 57 50 33 47 44 41 51 38 30 36 33 27 21 19 14 17 10 5 6 3 357 1 352 343 345 347
357 306 130 14 280 221 349 311 343 329 330 336 330 121 197 46 29 23 37 35 32 31 44 41 45 39 31 31 35 26 25 20 11 5 4 354 351 355 357 350 351 351 3 22
26 323 313 279 26 5 345 339 357 349 313 317 337 21 93 72 64 11 17 20 42 26 23 38 39 37 31 20 20 27 21 16 6 3 354 353 358 356 356 354 349 359 28 60
45 315 306 308 334 38 323 9 37 357 330 336 317 306 71 66 71 45 19 21 24 6 31 25 27 21 20 18 12 15 12 5 1 353 346 347 339 337 343 355 339 352 24 56
351 23 309 289 140 67 358 5 333 326 294 283 297 306 151 84 3 23 11 13 352 3 40 24 15 9 7 11 3 2 6 357 351 342 334 334 335 323 315 305 293 277 273 231
322 303 293 295 311 327 312 311 310 311 292 308 307 325 342 47 52 27 340 352 349 337 15 22 5 3 357 9 1 350 354 350 347 340 334 330 324 313 307 300 288 265 248 257
27 289 312 309 316 305 293 303 318 309 331 334 329 346 16 7 353 2 44 38 330 322 357 4 4 0 355 358 347 344 343 338 337 332 327 326 327 320 308 299 295 279 259 256
41 303 309 301 284 292 325 297 296 29 2 318 308 39 8 45 348 354 351 24 28 18 5 350 351 347 340 337 332 334 331 338 336 324 320 316 315 320 306 295 289 281 273 295
313 343 316 297 326 320 284 29 37 356 354 342 331 11 7 360 357 346 25 21 11 358 351 339 336 331 332 334 334 330 330 332 319 313 314 313 327 340 331 305 294 273 236 102
305 311 286 289 311 305 105 52 39 20 2 350 359 3 2 358 353 1 36 19 347 343 339 338 337 332 328 323 320 315 325 319 311 318 349 341 342 342 340 355 29 31 56 91
59 300 319 295 318 317 115 49 23 7 28 37 14 354 345 340 329 289 29 358 343 341 338 331 330 325 312 319 328 333 354 343 347 333 338 341 354 359 13 64 80 84 84 83
186 251 262 315 289 304 45 21 353 317 293 18 352 342 339 340 327 340 346 337 341 336 327 329 328 325 344 345 15 2 347 0 350 346 349 354 356 37 69 78 76 81 76 78
223 264 269 286 289 100 30 344 325 289 4 340 346 348 345 338 330 322 321 326 325 318 322 332 334 336 346 353 346 15 355 4 6 14 3 5 32 76 71 66 67 67 59 50
327 322 297 306 309 10 11 341 25 344 345 344 347 339 333 326 324 327 331 328 322 332 329 331 335 338 340 348 33 19 351 4 18 24 26 26 30 46 50 67 68 61 23 4
259 27 351 352 334 19 36 43 24 12 347 342 333 331 328 329 330 328 327 325 323 322 322 331 331 341 342 23 5 35 312 13 24 37 39 49 46 60 57 46 36 29 21 30
198 113 248 334 117 359 9 43 23 2 341 329 326 335 334 327 326 322 315 316 333 356 351 348 340 346 347 347 24 25 350 23 48 52 58 69 68 68 66 57 49 43 30 29
333 234 309 289 32 339 57 16 355 337 329 340 334 324 332 324 312 314 335 341 332 338 342 338 345 348 348 335 358 11 32 41 59 64 61 71 86 81 70 69 64 61 56 54
3 20 337 13 17 349 340 344 333 344 336 326 329 330 310 329 339 341 350 343 341 337 330 329 327 344 338 331 7 43 44 64 75 65 48 125 132 142 111 92 77 75 69 65